Погода в Мелиховской

Россия / Ростовская область     47°28′46″N   40°29′23″E
темп.,
°C
ветер,
м/с
пор.,
м/с
влажн.,
%
обл.,
%
осадки,
мм/ч
давл.,
гПа
погр.,
м
18 мая, вт
вт1800:00+16зюз4109499 3.8 1008342
03:00+16зюз41092100 4.8 1008436
06:00+15зюз3799100 3.1 1008277
09:00+17юз5688100 4.3 1009656
12:00+19зюз6775100 0.5 10091086
15:00+20зюз6872100 1.8 10091202
18:00+20зюз46680 0.2 1009386
21:00+15ю228342 0.3 101018
19 мая, ср
ср1900:00+14юв2286100 0.1 100923
03:00+15ююв2290100 0.1 100925
06:00+15в2491100 0.0 1008145
09:00+14юв61399100 10.7 1007636
12:00+13зюз81294100 7.7 1009803
15:00+17ююз61177100 12.7 10111379
18:00+16ююз7118343 2.3 1011926
21:00+13ююз6139073 2.8 1012606
20 мая, чт
чт2000:00+13ююз71493100 0.5 1011964
03:00+13ююз81691100 0.7 1011811
06:00+13юз8149276 0.1 1012773
09:00+17юз8127964 0.2 10131131
12:00+20зюз796382 0.1 10141676
15:00+21зюз575726 0.2 10141800
18:00+20з3470100 0.0 1014352
21:00+15ссв11805 0.0 101411
21 мая, пт
пт2100:00+14всв2285100 0.0 101414
03:00+13в3388100 0.0 101441
06:00+14всв48865 0.0 1014185
09:00+20в68678 0.0 1014475
12:00+23в7956100 0.0 1013912
15:00+25вюв7115939 0.0 10111149
18:00+24всв61266100 0.0 1010366
21:00+20в61672100 0.0 1010414
22 мая, сб
сб2200:00+18в615615 0.0 1009421
03:00+16в614650 0.0 1009346
06:00+15в615750 0.0 1008403
09:00+21вюв71264100 0.0 1009731
12:00+24юв6861100 0.0 1009956
15:00+25всв4866100 0.0 1008597
18:00+25с117326 0.0 1009116
21:00+21ссв3380100 0.0 100932